Flag for U.S.A. Weather past 2 weeks in Fullerton, California, U.S.A.

Now
61 °F

Overcast.


Feels Like: 61 °F
Forecast: 55 / 67 °F
Wind: 3 mph from Northwest

Location: Fullerton Municipal Airport

Current Time: Apr 21, 2015 at 3:35:25 AM

Latest Report: Apr 21, 2015 at 2:53 AM


Visibility: 10 mi

Pressure: 29.88 "Hg

Humidity: N/A

Dew point: N/A

Location of FullertonLocation

Historic Weather in Fullerton — Graph

°F

Fullerton temperature yesterday

Maximum temperature yesterday: 72 °F (at 1:53 PM)
Minimum temperature yesterday: 60 °F (at 12:53 AM)
Average temperature yesterday: 64 °F

Past Weeks' High & Low Weather Summary

 TemperatureHumidityPressure
High85 °F (Apr 15, 2:53 PM)90% (Apr 8, 5:53 AM)30.09 "Hg (Apr 8, 5:53 AM)
Low49 °F (Apr 8, 5:53 AM)5% (Apr 16, 11:53 AM)29.82 "Hg (Apr 20, 5:53 PM)
Average65 °F51%29.96 "Hg
* Reported Apr 6 1:53 AM — Apr 21 1:53 AM, Fullerton, Weather by CustomWeather, © 2015

Note: Actual official high and low records may vary slightly from our data, if they occured in-between our weather recording intervals... More about our weather records

Advertising

Fullerton weather history for previous 24 hours

 ConditionsComfort  
Time TempWeatherWind HumidityBarometerVisibility
1:53 AM
Tue, Apr 21
61 °FOvercast.No windN/A29.89 "Hg10 mi
12:53 AM61 °FOvercast.3 mphN/A29.90 "Hg10 mi
11:53 PM
Mon, Apr 20
61 °FOvercast.5 mphN/A29.90 "Hg10 mi
10:53 PM61 °FOvercast.5 mphN/A29.90 "Hg10 mi
10:04 PM61 °FPassing clouds.7 mphN/A29.90 "Hg10 mi
9:53 PM61 °FPassing clouds.6 mphN/A29.89 "Hg10 mi
8:53 PM61 °FClear.7 mphN/A29.88 "Hg10 mi
7:53 PM63 °FSunny.6 mphN/A29.85 "Hg10 mi
6:53 PM64 °FSunny.8 mph56%29.83 "Hg10 mi
5:53 PM67 °FSunny.9 mph51%29.82 "Hg10 mi
4:53 PM70 °FSunny.10 mph46%29.82 "Hg10 mi
3:53 PM70 °FSunny.10 mph47%29.83 "Hg10 mi
2:53 PM72 °FSunny.12 mph44%29.83 "Hg10 mi
1:53 PM72 °FSunny.9 mph44%29.85 "Hg10 mi
12:53 PM71 °FSunny.9 mph45%29.86 "Hg10 mi
11:53 AM69 °FSunny.3 mph47%29.88 "Hg10 mi
10:53 AM67 °FScattered clouds.6 mph53%29.90 "Hg10 mi
9:53 AM63 °FOvercast.6 mph60%29.90 "Hg10 mi
8:53 AM62 °FOvercast.5 mph62%29.90 "Hg10 mi
7:53 AM61 °FOvercast.3 mph67%29.90 "Hg10 mi
6:53 AM60 °FOvercast.No wind69%29.88 "Hg10 mi
5:53 AM60 °FOvercast.No wind72%29.88 "Hg10 mi
4:53 AM60 °FOvercast.No wind75%29.88 "Hg9 mi
3:53 AM60 °FOvercast.3 mph75%29.88 "Hg9 mi
Weather by CustomWeather, © 2015

See weather overviewHow to use our weather pages